Torna al catalogo

NOAA 16 DEB

AttivoPO
NORAD 41255·DEBRIS·🇺🇸 United States

Lanciato Sep 21, 2000 da Vandenberg Space Force Base

Loading…

Prossimi Passaggi (prossime 24 ore)

TLE

AggiornatoSource: Space-Track

Epoca: Sep 14, 2026, 08:56 UTC

1 41255U 00055FF  26257.37234728  .00006650  00000-0  13479-2 0  9998
2 41255  98.7736  50.8801 0028742  84.2585 276.1890 14.61334535562445

Traccia NOAA 16 DEB in tempo reale con AllMySat

Download on the App Store